Retour au catalogue

STARLINK-3175

ActifCommunicationsVLEO
NORAD 51140·PAYLOAD·🇺🇸 United States

Lancé Jan 19, 2022 depuis Cape Canaveral Space Force Station

Loading…

Prochains Passages (prochaines 24 heures)

TLE

FraisSource: CelesTrak SupGP

Époque: Sep 14, 2026, 20:31 UTC

1 51140C 22005AN  26257.85534722 -.00031614  00000+0 -10167-2 0  2578
2 51140  53.1587 156.0693 0001469  92.6167 329.8007 15.31716464    11

Suivez STARLINK-3175 en temps réel avec AllMySat

Download on the App Store